Miscellaneous Local Product
Issued by NWS Hastings, NE

Home | Current Version | Previous Version | Text Only | Print | Product List | Glossary On
Versions: 1 2 3 4 5 6 7 8 9 10 11 12 13 14 15 16 17 18 19 20 21 22 23 24 25 26 27 28 29 30 31 32 33 34 35 36 37 38 39 40 41 42 43 44 45 46 47 48 49 50
000
AXUS43 KGID 311502
MISGRI

GID CWA HOURLY WEATHER ROUNDUP
NATIONAL WEATHER SERVICE HASTINGS NE
900 AM CST SAT JAN 31 2015

NOTE: "FAIR" INDICATES FEW OR NO CLOUDS BELOW 12,000 FEET WITH NO
SIGNIFICANT WEATHER AND/OR OBSTRUCTIONS TO VISIBILITY.

...SOUTH CENTRAL NEBRASKA...

CITY           SKY/WX    TMP DP  RH WIND       PRES   REMARKS
GRAND ISLAND   LGT SNOW  32  31  96 S9        30.06F FOG     WCI  24
HASTINGS       LGT SNOW  32  31  96 S10       30.04F FOG     WCI  24
KEARNEY        CLOUDY    32  30  93 S8        30.02F WCI  25
ORD            CLOUDY    34  31  88 S5        30.02F WCI  30
YORK           MIX PCPN  32  32 100 S12       30.09S WCI  23
AURORA         LGT SNOW  33  33 100 S9        30.07S WCI  25
LEXINGTON      LGT SNOW  33  32  96 S8        29.99F WCI  26
HOLDREGE       CLOUDY    32  31  96 S8        30.00F FOG     WCI  25
HEBRON         LGT SNOW  33  32  95 S12       30.11F WCI  24

...NEBRASKA PANHANDLE...

CITY           SKY/WX    TMP DP  RH WIND       PRES   REMARKS
CHADRON        CLOUDY    27  23  85 CALM      29.99S
ALLIANCE       CLOUDY    32  27  81 N6        29.93S WCI  26
SCOTTSBLUFF    CLOUDY    34  26  72 CALM      29.94S
SIDNEY         LGT SNOW  31  29  92 N7        29.91F FOG     WCI  24

...WESTERN AND NORTH CENTRAL NEBRASKA...

CITY           SKY/WX    TMP DP  RH WIND       PRES   REMARKS
VALENTINE      CLOUDY    29  25  85 NE13      30.02R WCI  19
AINSWORTH      CLOUDY    30  28  93 NE9       30.01S WCI  22
ONEILL         CLOUDY    33  33  99 N5        30.04S WCI  29
BROKEN BOW     CLOUDY    34  31  88 SE5       29.99F WCI  30
IMPERIAL       FOG       33  31  92 E7        29.93F VSB<1/4 WCI  27
NORTH PLATTE   CLOUDY    33  30  88 SE7       29.96F WCI  27
MCCOOK         FOG       34  32  92 E7        29.96S VSB 3/4 WCI  28

...EASTERN NEBRASKA...

CITY           SKY/WX    TMP DP  RH WIND       PRES   REMARKS
NORFOLK        CLOUDY    36  33  89 S9        30.07S WCI  29
SO SIOUX CITY  CLOUDY    35  32  88 E5        30.12R WCI  31
TEKAMAH        CLOUDY    37  33  85 S10       30.14S WCI  30
COLUMBUS       CLOUDY    36  28  75 S10       30.11S WCI  28
ALBION         CLOUDY    35  31  87 S6        30.06F WCI  30
OMAHA EPPLEY   LGT RAIN  37  34  89 S10       30.16S WCI  30
OFFUTT AFB     LGT RAIN  36  32  87 S8        30.16S WCI  29
MILLARD        LGT RAIN  37  34  90 S8        30.15F WCI  30
LINCOLN        MIX PCPN  33  32  96 S8        30.14F FOG     WCI  26
NEBRASKA CITY  LGT RAIN  34  34  99 S14       30.17S WCI  25
BEATRICE       LGT SNOW  33  32  99 S8        30.15S WCI  25
FALLS CITY     RAIN      34  33  96 S5        30.20F FOG     WCI  30

...NORTHERN KANSAS...

CITY           SKY/WX    TMP DP  RH WIND       PRES   REMARKS
GOODLAND       CLOUDY    35  33  92 S5        29.90R WCI  31
HILL CITY      CLOUDY    35  33  92 VRB6      30.00F FOG     WCI  30
NORTON         CLOUDY    34  30  86 SE7       29.98S FOG     WCI  28
PHILLIPSBURG   CLOUDY    36  36 100 SE5       30.04R FOG     WCI  32
SMITH CENTER   CLOUDY    30  30 100 SE14      30.06S FOG     WCI  20
BELOIT         CLOUDY    34  32  93 SE12      30.08F WCI  25
HAYS           CLOUDY    34  27  75 SE6       30.03S WCI  29
RUSSELL        LGT RAIN  33  33 100 SE12      30.04S FOG     WCI  24
CONCORDIA      LGT SNOW  32  32 100 SE10      30.11F FOG     WCI  24
SALINA         LGT SNOW  35  32  88 SE12      30.13F FOG     WCI  27
TOPEKA         CLOUDY    37  36  96 SE6       30.21S WCI  32



USA.gov is the U.S. government's official web portal to all federal, state and local government web resources and services.